SCP
0 0 0 0 0 0 0 0 0 0 0 0 0 0 -0 -0 -0 -0 0 0 -0 -0 0 0 0 0 0 0 0 0 0 0 0 0 0 -0 0 0 0 0 0 0 0
0 0 0 0 0 0 0 0 0 0 0 0 0 0 -0 -0 -0 -0 -0 -0 -0 -0 -0 0 0 0 0 0 0 0 0 0 0 0 0 -0 0 0 0 0 0 0 0
0 0 0 0 0 0 0 0 0 0 0 0 0 0 0 -0 -0 -0 -0 -0 -0 -0 -0 -0 0 0 0 0 0 0 0 0 0 0 0 0 0 -0 -0 -0 -0 -0 0
0 0 0 0 0 0 0 0 0 0 0 0 0 0 0 0 0 -0 -0 -0 -0 -0 -0 -0 0 0 0 0 0 0 0 0 0 0 0 0 0 0 0 -0 -0 -0 -0
1 0 0 0 0 0 0 0 0 1 0 0 0 0 0 0 0 0 -0 -0 -0 -0 -0 -0 -0 -0 0 0 0 0 0 0 0 0 0 0 0 0 0 0 -0 0 0
1 1 1 1 1 0 0 0 0 0 1 1 0 0 0 0 0 0 0 0 0 -0 -0 -0 -0 0 0 0 0 -0 0 0 0 0 0 0 1 0 0 -0 0 0 0
2 1 1 1 1 1 1 1 1 1 1 1 1 1 1 0 0 0 0 0 0 0 0 0 0 0 0 0 0 0 0 0 0 0 0 0 0 0 0 -0 -0 0 0
0 2 1 1 1 2 1 1 1 1 1 1 1 1 1 1 0 0 0 0 0 0 0 0 0 0 0 0 0 0 0 0 0 0 0 0 0 0 0 1 1 0 0
0 0 0 1 2 1 1 1 1 1 1 1 1 1 1 1 0 0 0 0 0 1 1 0 0 0 0 1 0 0 0 0 0 0 0 0 0 0 0 0 0 0 0
0 0 0 0 0 1 2 2 1 1 1 1 1 1 1 1 1 0 0 0 1 0 1 1 0 0 1 1 1 1 0 0 0 0 0 0 0 0 0 0 0 0 -0
0 0 0 0 0 0 1 0 1 1 2 1 1 1 1 1 1 0 0 1 1 0 0 0 0 0 0 0 0 1 1 1 0 0 0 0 0 1 1 1 1 0 0
0 0 0 0 0 0 1 1 1 1 1 1 1 1 1 1 0 0 0 0 1 1 1 0 0 0 0 0 0 0 0 0 0 0 0 0 0 0 0 1 2 1 0
0 0 0 0 0 0 0 0 1 1 2 2 1 1 1 1 1 0 0 0 0 0 1 1 1 0 0 0 0 0 0 0 0 0 0 0 0 0 1 2 1 2 1
0 0 0 0 0 0 0 0 0 0 0 0 3 1 2 2 2 2 2 0 0 0 0 0 0 0 1 1 1 0 0 1 1 0 0 0 0 1 0 0 1 0 1
0 0 0 0 0 0 0 0 0 0 0 0 0 2 3 2 1 1 1 2 1 0 1 1 1 1 1 1 1 1 1 1 1 1 1 1 1 1 1 0 1 1 1
0 0 0 0 0 0 0 0 0 -0 0 0 0 0 0 0 0 0 0 0 1 0 0 1 1 1 1 2 2 1 1 1 1 1 1 1 1 1 1 1 1 1 1
0 0 0 0 0 0 0 0 0 0 -0 0 0 0 0 0 0 0 0 0 0 0 1 1 1 1 2 3 3 2 2 2 2 1 1 1 1 1 1 1 1 1 1
0 0 0 0 0 0 0 0 0 0 0 0 0 0 0 0 0 0 0 0 0 0 1 1 1 2 3 4 3 2 2 2 2 2 2 1 1 1 1 1 1 1 1
0 0 0 0 0 0 0 0 0 0 0 0 0 0 0 0 0 -0 -0 0 1 1 0 1 1 2 2 2 3 2 3 2 2 2 2 2 2 2 2 2 2 2 2
0 0 0 0 0 0 0 0 -0 0 0 0 0 0 0 0 0 0 0 0 0 1 2 1 1 2 2 2 3 3 4 3 3 3 3 3 2 3 2 2 3 2 3
0 0 0 0 0 0 0 0 0 -0 0 0 -0 0 0 0 0 0 0 0 0 0 0 0 1 1 2 1 1 1 3 2 1 0 0 0 1 3 2 1 2 3 2
0 0 0 0 0 0 0 0 0 -0 -0 -0 -0 -0 0 0 0 0 0 0 0 0 0 0 0 0 0 0 0 0 0 0 0 0 0 0 0 0 0 0 0 0 0
0 0 0 0 0 0 0 0 0 0 -0 -0 -0 -0 -0 0 0 0 0 0 0 0 0 0 0 0 0 0 0 0 0 0 0 0 0 0 0 0 0 0 0 0 0
0 0 0 0 0 0 0 0 0 0 0 -0 -0 -0 -0 0 0 0 0 0 0 0 0 0 0 0 0 0 0 0 0 0 0 0 0 0 0 0 0 0 0 0 0
0 0 0 0 0 0 0 0 0 0 0 0 -0 0 0 0 0 0 0 0 0 0 0 0 0 0 0 0 0 0 0 0 0 0 0 0 0 0 0 0 0 0 0
0 0 0 0 0 0 0 0 0 0 0 0 0 0 0 0 0 0 0 0 0 0 0 0 0 0 0 0 0 0 0 0 0 0 0 0 0 0 0 0 0 0 0
Wind_Speed_500mb
52 56 58 55 54 51 48 44 38 38 35 33 32 30 26 22 21 23 23 22 24 22 23 24 24 26 21 21 20 19 18 18 21 22 21 22 29 25 27 32 30 33 29
48 49 55 56 55 53 51 50 42 39 41 42 36 38 33 29 28 27 25 22 23 22 21 23 23 23 31 31 25 25 24 24 26 30 28 27 27 30 30 34 30 28 31
42 45 46 48 51 56 56 55 52 45 43 41 40 40 38 37 34 34 32 28 27 24 22 23 24 24 27 26 26 24 22 23 24 26 29 27 29 29 28 29 31 31 28
39 41 45 48 52 53 51 57 58 56 49 46 47 43 42 41 38 38 38 37 34 31 30 29 27 28 28 25 26 25 25 25 26 28 28 28 28 28 27 27 30 29 31
36 39 41 41 42 47 51 52 58 61 60 51 50 52 48 44 41 41 43 43 41 38 34 33 33 32 34 31 28 28 29 27 26 28 30 30 29 27 27 30 31 32 34
30 33 34 37 38 42 43 47 52 61 64 63 60 56 58 53 50 53 49 44 44 42 40 38 37 39 32 30 31 32 36 33 32 32 34 36 40 35 31 31 32 33 35
21 25 27 32 36 40 41 44 47 53 58 65 69 67 65 65 63 64 63 56 49 48 46 43 41 40 43 42 38 37 37 38 39 40 46 45 43 39 35 38 33 35 36
10 14 21 26 32 34 37 41 44 46 51 59 64 70 72 72 68 69 72 70 66 57 53 50 49 48 49 48 43 42 43 41 44 46 50 49 48 45 41 37 39 42 38
9 22 19 27 31 36 41 41 43 43 45 51 56 63 73 78 76 73 71 74 70 80 70 64 59 58 58 59 56 48 47 48 44 51 51 51 52 48 47 46 41 37 41
24 14 9 16 24 31 34 39 42 45 46 45 50 56 62 75 77 78 76 74 68 69 75 79 85 83 77 74 70 67 64 59 50 47 49 58 56 54 52 55 54 44 45
38 26 9 13 18 16 19 32 41 46 47 50 54 58 56 64 76 80 78 78 71 67 72 73 71 74 78 80 82 81 81 71 63 58 52 52 50 48 45 47 51 54 47
40 35 31 22 15 19 22 19 22 38 49 56 60 61 66 70 71 81 82 83 83 80 77 67 68 72 80 82 80 80 77 76 72 63 60 57 52 49 46 47 50 58 48
46 39 36 36 35 21 23 20 22 21 26 45 53 57 64 59 59 65 80 83 82 86 89 79 73 71 71 76 81 78 70 69 72 63 64 61 54 51 51 49 53 58 60
50 49 43 38 36 38 27 25 23 24 21 24 40 51 51 52 51 54 55 65 72 76 83 86 84 83 79 72 74 76 77 75 65 60 61 58 52 50 50 45 45 44 47
44 52 50 48 42 41 42 37 34 32 30 32 34 33 35 49 54 47 53 56 57 70 74 76 74 73 71 65 61 60 55 57 71 65 60 58 55 52 52 49 50 48 51
41 38 40 39 45 48 49 54 43 50 40 39 39 55 42 47 55 65 64 61 69 67 61 67 63 64 66 63 61 59 58 61 57 52 54 56 57 56 54 52 52 53 53
40 40 41 41 40 40 42 44 52 49 52 42 40 49 61 48 61 66 80 78 76 69 76 67 62 67 70 70 68 64 61 65 67 58 55 57 56 53 52 53 53 53 55
41 45 49 49 47 46 44 46 45 50 54 60 53 48 63 67 57 67 59 63 72 68 73 75 74 67 69 79 78 62 57 59 61 65 61 48 49 48 48 50 50 52 52
41 46 47 46 47 50 51 51 51 50 49 52 56 54 55 56 79 66 62 55 62 68 69 79 77 65 62 63 65 63 58 57 51 54 55 56 57 46 47 49 51 54 52
43 46 51 49 48 49 50 50 53 50 49 49 50 57 55 57 48 62 55 57 54 57 69 79 81 77 77 71 66 65 62 57 54 48 50 49 49 52 57 58 60 60 57
43 46 50 54 50 48 48 49 52 50 49 49 49 61 60 60 56 54 54 51 53 44 73 84 79 74 70 71 72 72 67 64 59 54 51 52 54 53 56 57 56 56 54
43 46 51 56 48 50 51 45 47 52 61 59 60 61 65 56 55 47 50 47 45 73 71 72 66 71 75 77 74 63 52 58 54 49 46 57 65 66 67 65 64 60 53
48 52 53 52 51 55 59 56 48 49 61 64 61 57 58 58 49 42 37 46 55 57 53 47 38 40 46 53 59 55 61 62 51 41 50 65 52 43 42 40 40 41 42
42 46 52 56 57 55 58 60 55 57 57 60 57 52 52 52 50 39 45 48 46 43 45 46 46 54 62 63 70 68 58 57 46 43 47 42 35 34 38 41 43 47 44
41 41 44 48 53 57 57 54 52 53 54 53 51 44 43 45 44 42 42 47 43 43 40 37 40 43 46 49 55 55 54 53 50 40 34 35 38 41 38 30 25 24 24
32 33 33 35 40 46 47 46 47 47 48 46 42 38 34 33 35 36 37 37 35 33 30 31 33 34 36 37 38 37 34 30 30 31 30 30 29 25 18 18 20 20 20
Wind_Direction_500mb
225 233 238 239 239 240 245 242 238 230 228 225 224 217 222 223 222 221 208 215 224 228 228 233 240 236 239 251 259 262 268 278 280 279 287 300 305 306 304 312 322 331 322
227 225 231 235 237 238 243 247 241 235 230 231 232 231 231 227 228 229 218 217 221 224 233 233 239 242 252 246 251 258 257 263 273 281 285 292 297 297 307 316 317 317 310
227 226 227 228 231 238 244 247 248 244 238 231 231 232 232 230 230 232 226 223 227 230 233 239 241 240 244 240 249 249 267 277 276 280 281 285 288 295 298 316 318 320 327
225 229 228 229 230 235 238 241 246 250 247 244 235 232 234 235 235 231 232 232 234 238 238 241 246 244 243 246 246 254 260 262 270 273 277 283 288 290 299 310 309 310 310
229 227 231 234 234 233 236 236 239 241 247 245 244 241 234 233 237 235 231 234 238 239 244 244 244 242 242 242 240 255 250 261 267 269 273 278 283 287 286 299 301 305 312
240 240 237 233 235 234 235 238 238 241 242 244 243 243 243 235 236 237 236 235 237 240 245 249 242 247 245 246 251 249 249 254 260 261 268 272 276 288 293 293 290 299 303
252 249 246 243 238 238 238 236 235 236 237 240 242 244 244 247 237 236 242 240 240 246 244 243 246 246 253 252 254 254 256 260 265 271 270 270 273 279 284 286 290 286 292
256 253 249 248 245 243 241 237 240 237 236 237 240 242 244 246 246 245 243 245 246 241 243 247 247 243 242 247 247 250 257 262 266 267 272 280 280 283 282 281 287 295 302
319 264 266 263 260 257 253 250 242 241 238 237 239 240 242 245 245 246 245 244 243 247 245 246 245 247 246 245 251 249 253 256 262 274 277 277 278 274 270 270 270 279 285
6 29 349 290 270 265 256 257 257 250 249 244 242 242 241 243 246 245 245 245 241 243 247 253 252 252 252 256 256 257 255 256 260 260 267 273 275 271 269 264 269 266 275
327 338 15 6 351 328 291 268 254 251 250 251 253 245 242 245 244 245 243 243 241 244 243 244 249 253 255 252 254 256 257 261 264 267 267 267 266 266 269 271 268 265 263
313 311 310 307 298 308 314 302 298 262 255 255 251 252 253 247 247 245 245 243 244 243 242 244 248 250 255 260 260 258 258 260 260 258 259 259 260 261 261 262 261 268 266
298 303 297 297 300 301 299 299 304 300 292 265 261 257 255 253 247 254 250 247 244 246 248 245 243 245 251 257 259 261 260 255 251 248 250 254 255 259 257 257 255 259 271
286 291 296 292 286 294 292 288 286 292 296 296 270 259 262 265 255 249 255 258 248 242 245 247 247 247 248 251 256 257 252 250 246 245 248 252 255 255 257 259 260 260 265
280 280 285 291 288 280 285 284 277 266 273 287 288 280 274 269 268 260 252 247 255 245 243 244 245 243 243 245 245 243 245 248 244 242 243 247 250 253 254 256 257 259 260
267 274 285 282 289 289 286 280 278 277 262 270 282 288 292 288 282 258 250 255 253 251 251 238 240 239 239 242 241 239 237 235 238 242 245 247 249 250 252 254 255 257 261
264 267 271 278 283 285 290 287 288 283 269 264 278 287 276 296 287 289 257 252 257 252 249 242 238 237 240 238 238 235 237 248 255 249 246 247 250 252 251 252 253 257 261
270 270 271 272 274 275 278 280 281 283 286 275 277 288 290 269 279 286 271 250 255 256 247 248 242 238 235 240 243 239 242 249 252 255 254 246 246 246 248 250 254 257 259
269 268 268 267 266 267 270 274 282 283 284 284 288 282 286 277 262 275 261 255 256 257 254 256 249 241 241 241 248 247 241 245 242 252 252 247 242 240 245 248 252 254 257
272 272 270 266 266 265 265 267 269 270 274 275 278 284 286 287 268 262 268 254 258 264 263 261 258 255 247 246 243 242 240 239 241 243 247 247 250 250 253 257 262 263 265
273 268 266 263 263 262 259 258 263 270 269 270 274 280 283 285 280 277 283 259 259 266 265 251 250 259 258 254 252 250 249 251 248 245 245 249 248 248 250 252 252 256 262
273 266 261 262 262 259 259 256 257 261 267 271 277 280 280 279 276 275 279 278 253 254 249 248 250 255 257 259 258 249 260 260 254 258 267 271 268 260 254 255 256 257 258
278 270 262 261 262 259 259 257 255 254 263 271 276 276 275 278 275 274 277 266 246 242 242 242 249 265 273 269 262 243 240 239 233 223 251 247 253 259 260 255 254 255 251
284 276 265 261 259 259 260 261 256 255 259 265 271 272 269 269 268 264 257 260 251 244 244 243 239 244 246 248 245 242 228 224 233 242 240 247 252 250 245 243 249 253 253
294 288 277 266 259 256 258 257 255 255 256 260 266 263 257 260 258 257 254 246 241 242 239 237 234 228 225 223 221 224 233 242 248 246 243 239 237 237 236 239 245 262 276
309 296 287 276 265 258 255 252 250 250 251 251 252 252 253 249 245 241 237 234 225 220 216 210 208 207 210 216 222 225 229 226 223 219 210 207 206 208 223 247 264 269 269
Wind_Speed_850mb
52 56 58 55 54 51 48 44 38 38 35 33 32 30 26 22 21 23 23 22 24 22 23 24 24 26 21 21 20 19 18 18 21 22 21 22 29 25 27 32 30 33 29
48 49 55 56 55 53 51 50 42 39 41 42 36 38 33 29 28 27 25 22 23 22 21 23 23 23 31 31 25 25 24 24 26 30 28 27 27 30 30 34 30 28 31
42 45 46 48 51 56 56 55 52 45 43 41 40 40 38 37 34 34 32 28 27 24 22 23 24 24 27 26 26 24 22 23 24 26 29 27 29 29 28 29 31 31 28
39 41 45 48 52 53 51 57 58 56 49 46 47 43 42 41 38 38 38 37 34 31 30 29 27 28 28 25 26 25 25 25 26 28 28 28 28 28 27 27 30 29 31
36 39 41 41 42 47 51 52 58 61 60 51 50 52 48 44 41 41 43 43 41 38 34 33 33 32 34 31 28 28 29 27 26 28 30 30 29 27 27 30 31 32 34
30 33 34 37 38 42 43 47 52 61 64 63 60 56 58 53 50 53 49 44 44 42 40 38 37 39 32 30 31 32 36 33 32 32 34 36 40 35 31 31 32 33 35
21 25 27 32 36 40 41 44 47 53 58 65 69 67 65 65 63 64 63 56 49 48 46 43 41 40 43 42 38 37 37 38 39 40 46 45 43 39 35 38 33 35 36
10 14 21 26 32 34 37 41 44 46 51 59 64 70 72 72 68 69 72 70 66 57 53 50 49 48 49 48 43 42 43 41 44 46 50 49 48 45 41 37 39 42 38
9 22 19 27 31 36 41 41 43 43 45 51 56 63 73 78 76 73 71 74 70 80 70 64 59 58 58 59 56 48 47 48 44 51 51 51 52 48 47 46 41 37 41
24 14 9 16 24 31 34 39 42 45 46 45 50 56 62 75 77 78 76 74 68 69 75 79 85 83 77 74 70 67 64 59 50 47 49 58 56 54 52 55 54 44 45
38 26 9 13 18 16 19 32 41 46 47 50 54 58 56 64 76 80 78 78 71 67 72 73 71 74 78 80 82 81 81 71 63 58 52 52 50 48 45 47 51 54 47
40 35 31 22 15 19 22 19 22 38 49 56 60 61 66 70 71 81 82 83 83 80 77 67 68 72 80 82 80 80 77 76 72 63 60 57 52 49 46 47 50 58 48
46 39 36 36 35 21 23 20 22 21 26 45 53 57 64 59 59 65 80 83 82 86 89 79 73 71 71 76 81 78 70 69 72 63 64 61 54 51 51 49 53 58 60
50 49 43 38 36 38 27 25 23 24 21 24 40 51 51 52 51 54 55 65 72 76 83 86 84 83 79 72 74 76 77 75 65 60 61 58 52 50 50 45 45 44 47
44 52 50 48 42 41 42 37 34 32 30 32 34 33 35 49 54 47 53 56 57 70 74 76 74 73 71 65 61 60 55 57 71 65 60 58 55 52 52 49 50 48 51
41 38 40 39 45 48 49 54 43 50 40 39 39 55 42 47 55 65 64 61 69 67 61 67 63 64 66 63 61 59 58 61 57 52 54 56 57 56 54 52 52 53 53
40 40 41 41 40 40 42 44 52 49 52 42 40 49 61 48 61 66 80 78 76 69 76 67 62 67 70 70 68 64 61 65 67 58 55 57 56 53 52 53 53 53 55
41 45 49 49 47 46 44 46 45 50 54 60 53 48 63 67 57 67 59 63 72 68 73 75 74 67 69 79 78 62 57 59 61 65 61 48 49 48 48 50 50 52 52
41 46 47 46 47 50 51 51 51 50 49 52 56 54 55 56 79 66 62 55 62 68 69 79 77 65 62 63 65 63 58 57 51 54 55 56 57 46 47 49 51 54 52
43 46 51 49 48 49 50 50 53 50 49 49 50 57 55 57 48 62 55 57 54 57 69 79 81 77 77 71 66 65 62 57 54 48 50 49 49 52 57 58 60 60 57
43 46 50 54 50 48 48 49 52 50 49 49 49 61 60 60 56 54 54 51 53 44 73 84 79 74 70 71 72 72 67 64 59 54 51 52 54 53 56 57 56 56 54
43 46 51 56 48 50 51 45 47 52 61 59 60 61 65 56 55 47 50 47 45 73 71 72 66 71 75 77 74 63 52 58 54 49 46 57 65 66 67 65 64 60 53
48 52 53 52 51 55 59 56 48 49 61 64 61 57 58 58 49 42 37 46 55 57 53 47 38 40 46 53 59 55 61 62 51 41 50 65 52 43 42 40 40 41 42
42 46 52 56 57 55 58 60 55 57 57 60 57 52 52 52 50 39 45 48 46 43 45 46 46 54 62 63 70 68 58 57 46 43 47 42 35 34 38 41 43 47 44
41 41 44 48 53 57 57 54 52 53 54 53 51 44 43 45 44 42 42 47 43 43 40 37 40 43 46 49 55 55 54 53 50 40 34 35 38 41 38 30 25 24 24
32 33 33 35 40 46 47 46 47 47 48 46 42 38 34 33 35 36 37 37 35 33 30 31 33 34 36 37 38 37 34 30 30 31 30 30 29 25 18 18 20 20 20
Wind_Direction_850mb
225 233 238 239 239 240 245 242 238 230 228 225 224 217 222 223 222 221 208 215 224 228 228 233 240 236 239 251 259 262 268 278 280 279 287 300 305 306 304 312 322 331 322
227 225 231 235 237 238 243 247 241 235 230 231 232 231 231 227 228 229 218 217 221 224 233 233 239 242 252 246 251 258 257 263 273 281 285 292 297 297 307 316 317 317 310
227 226 227 228 231 238 244 247 248 244 238 231 231 232 232 230 230 232 226 223 227 230 233 239 241 240 244 240 249 249 267 277 276 280 281 285 288 295 298 316 318 320 327
225 229 228 229 230 235 238 241 246 250 247 244 235 232 234 235 235 231 232 232 234 238 238 241 246 244 243 246 246 254 260 262 270 273 277 283 288 290 299 310 309 310 310
229 227 231 234 234 233 236 236 239 241 247 245 244 241 234 233 237 235 231 234 238 239 244 244 244 242 242 242 240 255 250 261 267 269 273 278 283 287 286 299 301 305 312
240 240 237 233 235 234 235 238 238 241 242 244 243 243 243 235 236 237 236 235 237 240 245 249 242 247 245 246 251 249 249 254 260 261 268 272 276 288 293 293 290 299 303
252 249 246 243 238 238 238 236 235 236 237 240 242 244 244 247 237 236 242 240 240 246 244 243 246 246 253 252 254 254 256 260 265 271 270 270 273 279 284 286 290 286 292
256 253 249 248 245 243 241 237 240 237 236 237 240 242 244 246 246 245 243 245 246 241 243 247 247 243 242 247 247 250 257 262 266 267 272 280 280 283 282 281 287 295 302
319 264 266 263 260 257 253 250 242 241 238 237 239 240 242 245 245 246 245 244 243 247 245 246 245 247 246 245 251 249 253 256 262 274 277 277 278 274 270 270 270 279 285
6 29 349 290 270 265 256 257 257 250 249 244 242 242 241 243 246 245 245 245 241 243 247 253 252 252 252 256 256 257 255 256 260 260 267 273 275 271 269 264 269 266 275
327 338 15 6 351 328 291 268 254 251 250 251 253 245 242 245 244 245 243 243 241 244 243 244 249 253 255 252 254 256 257 261 264 267 267 267 266 266 269 271 268 265 263
313 311 310 307 298 308 314 302 298 262 255 255 251 252 253 247 247 245 245 243 244 243 242 244 248 250 255 260 260 258 258 260 260 258 259 259 260 261 261 262 261 268 266
298 303 297 297 300 301 299 299 304 300 292 265 261 257 255 253 247 254 250 247 244 246 248 245 243 245 251 257 259 261 260 255 251 248 250 254 255 259 257 257 255 259 271
286 291 296 292 286 294 292 288 286 292 296 296 270 259 262 265 255 249 255 258 248 242 245 247 247 247 248 251 256 257 252 250 246 245 248 252 255 255 257 259 260 260 265
280 280 285 291 288 280 285 284 277 266 273 287 288 280 274 269 268 260 252 247 255 245 243 244 245 243 243 245 245 243 245 248 244 242 243 247 250 253 254 256 257 259 260
267 274 285 282 289 289 286 280 278 277 262 270 282 288 292 288 282 258 250 255 253 251 251 238 240 239 239 242 241 239 237 235 238 242 245 247 249 250 252 254 255 257 261
264 267 271 278 283 285 290 287 288 283 269 264 278 287 276 296 287 289 257 252 257 252 249 242 238 237 240 238 238 235 237 248 255 249 246 247 250 252 251 252 253 257 261
270 270 271 272 274 275 278 280 281 283 286 275 277 288 290 269 279 286 271 250 255 256 247 248 242 238 235 240 243 239 242 249 252 255 254 246 246 246 248 250 254 257 259
269 268 268 267 266 267 270 274 282 283 284 284 288 282 286 277 262 275 261 255 256 257 254 256 249 241 241 241 248 247 241 245 242 252 252 247 242 240 245 248 252 254 257
272 272 270 266 266 265 265 267 269 270 274 275 278 284 286 287 268 262 268 254 258 264 263 261 258 255 247 246 243 242 240 239 241 243 247 247 250 250 253 257 262 263 265
273 268 266 263 263 262 259 258 263 270 269 270 274 280 283 285 280 277 283 259 259 266 265 251 250 259 258 254 252 250 249 251 248 245 245 249 248 248 250 252 252 256 262
273 266 261 262 262 259 259 256 257 261 267 271 277 280 280 279 276 275 279 278 253 254 249 248 250 255 257 259 258 249 260 260 254 258 267 271 268 260 254 255 256 257 258
278 270 262 261 262 259 259 257 255 254 263 271 276 276 275 278 275 274 277 266 246 242 242 242 249 265 273 269 262 243 240 239 233 223 251 247 253 259 260 255 254 255 251
284 276 265 261 259 259 260 261 256 255 259 265 271 272 269 269 268 264 257 260 251 244 244 243 239 244 246 248 245 242 228 224 233 242 240 247 252 250 245 243 249 253 253
294 288 277 266 259 256 258 257 255 255 256 260 266 263 257 260 258 257 254 246 241 242 239 237 234 228 225 223 221 224 233 242 248 246 243 239 237 237 236 239 245 262 276
309 296 287 276 265 258 255 252 250 250 251 251 252 252 253 249 245 241 237 234 225 220 216 210 208 207 210 216 222 225 229 226 223 219 210 207 206 208 223 247 264 269 269